STARLINK-1467 (45733 NORAD) Tracking and Keplerian Element Data

This shows tracking and keplerian element data for the satellite.

Feedback or suggestion? Click here.




ElementValue
Catalog45733
NameSTARLINK-1467
Epoch Orbit446
Epoch Day185.50001157
Epoch Year2020
RAAN198.1998
Inclination52.9988
Eccentricity0.0001823
Argument of Perigee84.0712
Mean Anonmoly305.6822
Mean Motion15.61136432
Decay Rate0.00062974
L11 45733U 20038D 20185.50001157 .00062974 00000-0 73265-3 0 9994
L22 45733 52.9988 198.1998 0001823 84.0712 305.6822 15.61136432 4468

Live tracking and technical data element details for STARLINK-1467 (NORAD 45733). STARLINK-1467 can be tracked NOW for your location showing map with azimuth and elevation plus other details from your city location.

Track the satellite on the map from your city or location and see movement details for azimuth, elevation, latitude, longitude, range, height, and movement on the map or in text.







IsCatalogInMostPopularTable: catalog: 45733, numindb: 4
Update: records affected: 1



GetName: 45733 STARLINK-1467

Hit Count: updated at: Sat, 04 Jul 2020 01:27:05 GMT